Voltar ao catálogo

COSMOS 1275 DEB

AtivoPO
NORAD 19853·DEBRIS·🇷🇺 Russia

Lançado Jun 4, 1981 de Plesetsk Cosmodrome

Loading…

Próximas Passagens (próximas 24 horas)

TLE

AtualizadoSource: Space-Track

Época: Sep 14, 2026, 19:27 UTC

1 19853U 81053MH  26257.81056398  .00000650  00000-0  70235-3 0  9996
2 19853  82.9920 198.7372 0122144 346.4663  41.3267 13.68742148706731

Acompanhe COSMOS 1275 DEB em tempo real com AllMySat

Download on the App Store